Sandpoint, ID

1:05 AM PDT on March 30, 2017 (GMT -0700)
Sandpoint

Weather History for KSZT - May, 2013

Change the Weather History Date:

Monday, May 6, 2013

  Actual Average Record
Temperature  
Mean Temperature 56 °F -  
Max Temperature 78 °F 64 °F 86 °F (1980)
Min Temperature 35 °F 40 °F 25 °F (1924)
Degree Days  
Heating Degree Days 8    
Growing Degree Days 6 (Base 50)    
Moisture  
Dew Point 38 °F    
Average Humidity 56    
Maximum Humidity 100    
Minimum Humidity 18    
Precipitation  
Precipitation 0.00 in - - ()
Sea Level Pressure  
Sea Level Pressure 29.87 in    
Wind  
Wind Speed 2 mph (East)    
Max Wind Speed 14 mph    
Max Gust Speed 18 mph    
Visibility 10 miles    
Events      
Averages and records for this station are not official NWS values.
T = Trace of Precipitation, MM = Missing Value Source: NWS Daily Summary

Daily Weather History Graph

Daily Weather History Graph

Search for Another Location

Airport or City:

Trip Planner

Search our weather history database for the weather conditions in past years. The results will help you decide how hot, cold, wet, or windy it might be!

Date:

Astronomy

May. 06, 2013 Rise Set
Actual Time 5:18 AM PDT 8:07 PM PDT
Civil Twilight 4:42 AM PDT 8:43 PM PDT
Nautical Twilight 3:57 AM PDT 9:30 PM PDT
Astronomical Twilight 3:02 AM PDT 10:25 PM PDT
Moon 3:38 AM PDT (5/6) 5:00 PM PDT (5/6)
Length of Visible Light 16h 00m
Length of Day
14h 49m
Waning Crescent, 10% of the Moon is Illuminated
May 6
Waning Crescent
May 9
New
May 17
First Quarter
May 24
Full
May 31
Last Quarter

Hourly Weather History & Observations

Time (PDT) Temp. Windchill Dew Point Humidity Pressure Visibility Wind Dir Wind Speed Gust Speed Precip Events Conditions
12:15 AM 42.8 °F - 37.4 °F 81% 29.93 in 10.0 mi Calm Calm - N/A   Clear
12:35 AM 42.8 °F - 37.4 °F 81% 29.94 in 10.0 mi Calm Calm - N/A   Clear
12:55 AM 42.8 °F - 37.4 °F 81% 29.94 in 10.0 mi Calm Calm - N/A   Clear
1:15 AM 42.8 °F - 37.4 °F 81% 29.94 in 10.0 mi Calm Calm - N/A   Clear
1:35 AM 44.6 °F 43.1 °F 37.4 °F 76% 29.94 in 10.0 mi WNW 3.5 mph - N/A   Clear
1:55 AM 41.0 °F - 35.6 °F 81% 29.94 in 10.0 mi Calm Calm - N/A   Clear
2:15 AM 41.0 °F - 37.4 °F 87% 29.94 in 10.0 mi Calm Calm - N/A   Clear
2:35 AM 41.0 °F - 39.2 °F 93% 29.94 in 10.0 mi Calm Calm - N/A   Clear
2:55 AM 39.2 °F - 39.2 °F 100% 29.94 in 10.0 mi Calm Calm - N/A   Clear
3:15 AM 37.4 °F - 37.4 °F 100% 29.95 in 10.0 mi Calm Calm - N/A   Clear
3:35 AM 39.2 °F - 39.2 °F 100% 29.95 in 10.0 mi Calm Calm - N/A   Clear
3:55 AM 39.2 °F - 39.2 °F 100% 29.95 in 10.0 mi Calm Calm - N/A   Clear
4:15 AM 39.2 °F - 37.4 °F 93% 29.95 in 10.0 mi Calm Calm - N/A   Clear
4:35 AM 37.4 °F - 37.4 °F 100% 29.95 in 10.0 mi Calm Calm - N/A   Clear
4:55 AM 35.6 °F - 35.6 °F 100% 29.95 in 10.0 mi Calm Calm - N/A   Clear
5:15 AM 37.4 °F - 37.4 °F 100% 29.96 in 10.0 mi Calm Calm - N/A   Clear
5:35 AM 35.6 °F - 35.6 °F 100% 29.96 in 10.0 mi Calm Calm - N/A   Clear
5:55 AM 37.4 °F - 37.4 °F 100% 29.96 in 10.0 mi Calm Calm - N/A   Clear
6:15 AM 41.0 °F - 41.0 °F 100% 29.96 in 10.0 mi Calm Calm - N/A   Clear
6:35 AM 41.0 °F - 41.0 °F 100% 29.96 in 10.0 mi Calm Calm - N/A   Clear
6:55 AM 44.6 °F - 37.4 °F 76% 29.96 in 10.0 mi Calm Calm - N/A   Clear
7:15 AM 46.4 °F - 37.4 °F 71% 29.96 in 10.0 mi Calm Calm - N/A   Clear
7:35 AM 51.8 °F - 37.4 °F 58% 29.95 in 10.0 mi NE 3.5 mph - N/A   Clear
7:55 AM 55.4 °F - 37.4 °F 51% 29.95 in 10.0 mi NNE 5.8 mph - N/A   Clear
8:15 AM 59.0 °F - 37.4 °F 45% 29.94 in 10.0 mi NNE 9.2 mph - N/A   Clear
8:35 AM 60.8 °F - 37.4 °F 42% 29.94 in 10.0 mi NE 13.8 mph - N/A   Clear
8:55 AM 60.8 °F - 35.6 °F 39% 29.94 in 10.0 mi NNE 12.7 mph 18.4 mph N/A   Clear
9:15 AM 62.6 °F - 35.6 °F 37% 29.93 in 10.0 mi NE 10.4 mph - N/A   Clear
9:35 AM 62.6 °F - 37.4 °F 39% 29.93 in 10.0 mi ENE 8.1 mph - N/A   Clear
9:55 AM 62.6 °F - 39.2 °F 42% 29.92 in 10.0 mi ESE 6.9 mph - N/A   Clear
10:15 AM 62.6 °F - 41.0 °F 45% 29.92 in 10.0 mi ESE 5.8 mph - N/A   Clear
10:35 AM 62.6 °F - 41.0 °F 45% 29.92 in 10.0 mi ESE 8.1 mph - N/A   Clear
10:55 AM 62.6 °F - 41.0 °F 45% 29.91 in 10.0 mi East 8.1 mph - N/A   Clear
11:15 AM 64.4 °F - 41.0 °F 42% 29.91 in 10.0 mi ESE 8.1 mph - N/A   Clear
11:35 AM 66.2 °F - 39.2 °F 37% 29.90 in 10.0 mi East 8.1 mph - N/A   Clear
11:55 AM 68.0 °F - 39.2 °F 35% 29.89 in 10.0 mi ESE 8.1 mph - N/A   Clear
12:15 PM 69.8 °F - 39.2 °F 33% 29.88 in 10.0 mi ESE 6.9 mph - N/A   Clear
12:35 PM 69.8 °F - 41.0 °F 35% 29.87 in 10.0 mi East 5.8 mph - N/A   Clear
12:55 PM 73.4 °F - 39.2 °F 29% 29.86 in 5.0 mi ENE 4.6 mph - N/A   Haze
1:15 PM 75.2 °F - 33.8 °F 22% 29.86 in 10.0 mi ESE 5.8 mph - N/A   Clear
1:35 PM 75.2 °F - 32.0 °F 21% 29.85 in 10.0 mi ESE 4.6 mph - N/A   Clear
1:55 PM 77.0 °F - 32.0 °F 19% 29.84 in 10.0 mi SE 5.8 mph - N/A   Clear
2:15 PM 77.0 °F - 32.0 °F 19% 29.83 in 10.0 mi ESE 5.8 mph - N/A   Clear
2:35 PM 77.0 °F - 32.0 °F 19% 29.83 in 10.0 mi SE 6.9 mph - N/A   Clear
2:55 PM 78.8 °F - 33.8 °F 20% 29.82 in 10.0 mi SSE 5.8 mph - N/A   Clear
3:15 PM 78.8 °F - 33.8 °F 20% 29.81 in 10.0 mi ESE 4.6 mph - N/A   Clear
3:55 PM 78.8 °F - 32.0 °F 18% 29.79 in 10.0 mi SE 5.8 mph - N/A   Clear
4:15 PM 78.8 °F - 32.0 °F 18% 29.79 in 10.0 mi ESE 4.6 mph - N/A   Clear
4:35 PM 78.8 °F - 33.8 °F 20% 29.78 in 10.0 mi ESE 4.6 mph - N/A   Clear
4:55 PM 78.8 °F - 32.0 °F 18% 29.78 in 10.0 mi SE 6.9 mph - N/A   Clear
5:15 PM 78.8 °F - 33.8 °F 20% 29.76 in 10.0 mi SE 8.1 mph - N/A   Clear
5:35 PM 78.8 °F - 32.0 °F 18% 29.76 in 10.0 mi SE 5.8 mph - N/A   Clear
5:55 PM 78.8 °F - 32.0 °F 18% 29.76 in 10.0 mi SE 5.8 mph - N/A   Clear
6:15 PM 78.8 °F - 32.0 °F 18% 29.75 in 10.0 mi Calm Calm - N/A   Clear
6:35 PM 77.0 °F - 41.0 °F 28% 29.75 in 10.0 mi Calm Calm - N/A   Clear
6:55 PM 73.4 °F - 42.8 °F 33% 29.75 in 7.0 mi Calm Calm - N/A   Clear
7:15 PM 69.8 °F - 37.4 °F 31% 29.75 in 10.0 mi Calm Calm - N/A   Clear
7:35 PM 64.4 °F - 42.8 °F 45% 29.75 in 10.0 mi Calm Calm - N/A   Clear
7:55 PM 62.6 °F - 42.8 °F 48% 29.74 in 10.0 mi Calm Calm - N/A   Clear
8:15 PM 60.8 °F - 42.8 °F 52% 29.75 in 10.0 mi Calm Calm - N/A   Clear
8:35 PM 57.2 °F - 44.6 °F 63% 29.75 in 10.0 mi WNW 4.6 mph - N/A   Clear
8:55 PM 57.2 °F - 41.0 °F 55% 29.76 in 10.0 mi Calm Calm - N/A   Clear
9:15 PM 55.4 °F - 42.8 °F 63% 29.77 in 10.0 mi Calm Calm - N/A   Clear
9:35 PM 53.6 °F - 42.8 °F 67% 29.78 in 10.0 mi Calm Calm - N/A   Clear
9:55 PM 51.8 °F - 42.8 °F 71% 29.78 in 10.0 mi Calm Calm - N/A   Clear
10:15 PM 50.0 °F - 42.8 °F 76% 29.78 in 10.0 mi Calm Calm - N/A   Clear
10:35 PM 50.0 °F - 41.0 °F 71% 29.78 in 10.0 mi Calm Calm - N/A   Clear
10:55 PM 50.0 °F - 41.0 °F 71% 29.79 in 10.0 mi Calm Calm - N/A   Clear
11:15 PM 50.0 °F - 41.0 °F 71% 29.80 in 10.0 mi Calm Calm - N/A   Clear
11:35 PM 48.2 °F - 41.0 °F 76% 29.80 in 10.0 mi Calm Calm - N/A   Clear
11:55 PM 46.4 °F - 41.0 °F 81% 29.80 in 10.0 mi Calm Calm - N/A   Clear